Погода в Фурманове

Россия / Оренбургская область     52°03′54″N   51°37′12″E
темп.,
°C
ветер,
м/с
пор.,
м/с
влажн.,
%
обл.,
%
осадки,
мм/ч
давл.,
гПа
погр.,
м
5 августа, чт
чт523:00+28сз5113790 0.0 1010333
02:00+25ссз5105663 0.0 1011316
05:00+22ссз1167100 0.1 101131
08:00+22ссз69722 0.0 1012370
11:00+25ссз7753100 0.0 1012871
14:00+28ссз6638100 0.0 10121858
17:00+30ссз66280 0.0 10122555
20:00+28ссз472795 0.0 1012432
6 августа, пт
пт623:00+24с71330100 0.0 1013455
02:00+20ссз5115165 0.0 1014261
05:00+17с49640 0.0 1014178
08:00+19с57581 0.0 1015265
11:00+25ссв563861 0.0 10151597
14:00+28с452992 0.0 10142225
17:00+29с55245 0.0 10142421
20:00+27с47265 0.0 1014350
7 августа, сб
сб723:00+21ссв45355 0.0 101563
02:00+20ссв363492 0.0 101582
05:00+17св354264 0.0 101672
08:00+20в36405 0.0 1017190
11:00+26всв33280 0.0 1017981
14:00+30св34220 0.0 10161754
17:00+31св45215 0.0 10152163
20:00+29св35265 0.0 1015157
8 августа, вс
вс823:00+23всв353624 0.0 101672
02:00+21всв3844100 0.0 1017135
05:00+19всв3549100 0.0 101888
08:00+21всв4647100 0.0 1019202
11:00+27всв45335 0.0 1018805
14:00+31всв56255 0.0 10181639
17:00+32всв552466 0.0 10172048
20:00+30всв3429100 0.0 101790
9 августа, пн
пн923:00+25всв3336100 0.0 101839
02:00+23всв3541100 0.0 101886
05:00+22в344194 0.0 101973
08:00+22в3733100 0.0 1018208
11:00+28вюв562558 0.0 1018964
14:00+31в562491 0.0 10171553
17:00+33всв5523100 0.0 10162117
20:00+30всв5827100 0.0 1016435